Regional Weather Roundup
Issued by NWS Goodland, KS

Home | Current Version | Previous Version | Graphics & Text | Print | Product List | Glossary On
Versions: 1 2 3 4 5 6 7 8 9 10 11 12 13 14 15 16 17 18 19 20 21 22 23 24 25 26 27 28 29 30 31 32 33 34 35 36 37 38 39 40 41 42 43 44 45 46 47 48 49 50
000
ASUS43 KGLD 050308
RWRGLD

GOODLAND FORECAST AREA HOURLY WEATHER ROUNDUP
NATIONAL WEATHER SERVICE GOODLAND KS
800 PM MST SUN DEC 04 2016

...OFFICIAL OBSERVATIONS...

CITY           SKY/WX    TMP DP  RH WIND       PRES   REMARKS
GOODLAND KS    CLOUDY    35  13  40 S17       29.82F
HILL CITY KS   CLEAR     34  20  56 SW8       29.89F
IMPERIAL NEB   CLOUDY    36  13  38 SW12      29.77F
MCCOOK NEB     CLEAR     36  15  42 S12       29.80F
AKRON CO       CLOUDY    39  13  34 SW13      29.75F
BURLINGTON CO  CLEAR     33  11  39 S17       29.83F
LIMON CO       CLOUDY    14   6  70 N5        29.83F
$$

...UNOFFICIAL OBSERVATIONS...

CITY           SKY/WX    TMP DP  RH WIND       PRES   REMARKS
COLBY KS       CLEAR     37  18  44 S12G18    29.85F
LENORA KS        N/A     35  32  89 MISG        N/A
NORTON KS      CLEAR     36  14  41 S13       29.85F
SHARON SPRINGS   N/A     34  17  50 S17         N/A
TRENTON NEB      N/A     36  32  85 SW6         N/A
KIT CARSON CO    N/A     31  12  45 CALM        N/A
YUMA CO        FAIR      32  12  43 S12       29.77F
$$




USA.gov is the U.S. government's official web portal to all federal, state and local government web resources and services.